Location: Shenandoah County Park
(38.9356°N, 78.4524°W)
Time: 17:57:30
(UTC-04:00)

Tiros 1 - All Passes

Search period start: 18 June 2024 00:00
Search period end: 28 June 2024 00:00
Orbit: 624 x 657 km, 48.4° (Epoch: 18 June)

Date Brightness Start Highest point End Pass type
(mag) Time Alt. Az. Time Alt. Az. Time Alt. Az.
18 Jun - 01:21:47 10° S 01:25:32 25° SE 01:29:20 10° E visible
18 Jun - 03:02:44 10° WSW 03:07:17 65° NNW 03:11:55 10° NE visible
18 Jun - 04:45:59 10° WNW 04:49:58 27° N 04:53:58 10° NE visible
18 Jun - 06:28:58 10° NW 06:33:01 28° NNE 06:37:06 10° ENE daylight
18 Jun - 08:10:56 10° NW 08:15:38 72° NNE 08:20:20 10° ESE daylight
18 Jun - 09:53:38 10° W 09:57:21 23° SW 10:01:05 10° S daylight
19 Jun - 01:44:44 10° SW 01:49:13 56° SE 01:53:44 10° ENE visible
19 Jun - 03:27:05 10° W 03:31:25 39° NNW 03:35:46 10° NE visible
19 Jun - 05:10:30 10° NW 05:14:21 25° N 05:18:13 10° NE visible
19 Jun - 06:52:55 10° NW 06:57:18 39° NNE 07:01:43 10° E daylight
19 Jun - 08:34:54 10° WNW 08:39:31 58° SW 08:44:09 10° SE daylight
20 Jun - 00:27:55 10° S 00:31:25 22° SE 00:34:55 10° E visible
20 Jun - 02:08:30 10° WSW 02:13:05 73° NNW 02:17:42 10° NE visible
20 Jun - 03:51:40 10° WNW 03:55:40 28° NNW 03:59:43 10° NE visible
20 Jun - 05:34:44 10° NW 05:38:44 27° N 05:42:45 10° ENE daylight
20 Jun - 07:16:45 10° NW 07:21:24 64° NNE 07:26:05 10° ESE daylight
20 Jun - 08:59:15 10° WNW 09:03:12 27° SW 09:07:10 10° SSE daylight
21 Jun - 00:50:39 10° SW 00:55:02 48° SE 00:59:28 10° ENE visible
21 Jun - 02:32:47 10° W 02:37:09 42° NNW 02:41:34 10° NE visible
21 Jun - 04:16:13 10° WNW 04:20:02 25° N 04:23:54 10° NE visible
21 Jun - 05:58:43 10° NW 06:03:02 36° NNE 06:07:21 10° E daylight
21 Jun - 07:40:41 10° WNW 07:45:19 67° SW 07:50:00 10° SE daylight
21 Jun - 09:25:03 10° WSW 09:26:43 12° SW 09:28:23 10° SSW daylight
21 Jun - 23:34:08 10° S 23:37:17 19° SE 23:40:27 10° E visible
22 Jun - 01:14:17 10° WSW 01:18:52 83° NNW 01:23:30 10° ENE visible
22 Jun - 02:57:20 10° WNW 03:01:23 30° NNW 03:05:29 10° NE visible
22 Jun - 04:40:30 10° NW 04:44:26 26° N 04:48:22 10° ENE visible
22 Jun - 06:22:34 10° NW 06:27:10 57° NNE 06:31:47 10° ESE daylight
22 Jun - 08:04:55 10° WNW 08:09:02 31° SW 08:13:12 10° SSE daylight
22 Jun - 23:56:35 10° SSW 00:00:53 41° SE 00:05:11 10° ENE visible
23 Jun - 01:38:28 10° W 01:42:53 46° NNW 01:47:21 10° NE visible
23 Jun - 03:21:53 10° WNW 03:25:44 25° N 03:29:36 10° NE visible
23 Jun - 05:04:31 10° NW 05:08:45 33° NNE 05:12:59 10° E visible
23 Jun - 06:46:27 10° WNW 06:51:07 77° SW 06:55:48 10° SE daylight
23 Jun - 08:30:10 10° W 08:32:35 14° SW 08:35:01 10° SSW daylight
23 Jun - 22:40:26 10° SSE 22:43:09 16° SE 22:45:53 10° E night (unlit)
24 Jun - 00:20:05 10° SW 00:24:40 87° SE 00:29:17 10° ENE visible
24 Jun - 02:02:59 10° WNW 02:07:06 31° NNW 02:11:13 10° NE visible
24 Jun - 03:46:15 10° NW 03:50:07 26° N 03:54:01 10° ENE visible
24 Jun - 05:28:22 10° NW 05:32:55 51° NNE 05:37:28 10° ESE daylight
24 Jun - 07:10:36 10° WNW 07:14:52 36° SW 07:19:10 10° SSE daylight
24 Jun - 23:02:33 10° SSW 23:06:42 35° SE 23:10:53 10° ENE visible
25 Jun - 00:44:10 10° WSW 00:48:38 51° NNW 00:53:09 10° NE visible
25 Jun - 02:27:34 10° WNW 02:31:25 26° N 02:35:18 10° NE visible
25 Jun - 04:10:19 10° NW 04:14:27 31° NNE 04:18:36 10° ENE visible
25 Jun - 05:52:14 10° WNW 05:56:54 88° SSW 06:01:35 10° SE daylight
25 Jun - 07:35:31 10° W 07:38:26 17° SW 07:41:23 10° S daylight
25 Jun - 21:46:54 10° SSE 21:49:01 13° SE 21:51:10 10° ESE visible
25 Jun - 23:25:53 10° SW 23:30:27 76° SE 23:35:03 10° ENE visible
26 Jun - 01:08:38 10° W 01:12:48 33° NNW 01:16:59 10° NE visible
26 Jun - 02:51:58 10° NW 02:55:48 25° N 02:59:39 10° ENE visible
26 Jun - 04:34:11 10° NW 04:38:39 46° NNE 04:43:08 10° E visible
26 Jun - 06:16:18 10° WNW 06:20:41 42° SW 06:25:06 10° SSE daylight
26 Jun - 22:08:33 10° SSW 22:12:32 30° SE 22:16:32 10° ENE visible
26 Jun - 23:49:53 10° WSW 23:54:23 57° NNW 23:58:56 10° NE visible
27 Jun - 01:33:14 10° WNW 01:37:06 26° N 01:41:00 10° NE visible
27 Jun - 03:16:05 10° NW 03:20:08 29° NNE 03:24:13 10° ENE visible
27 Jun - 04:58:01 10° WNW 05:02:40 82° NNE 05:07:20 10° ESE visible
27 Jun - 06:40:58 10° W 06:44:17 19° SW 06:47:37 10° S daylight
27 Jun - 20:53:44 10° SE 20:54:54 11° SE 20:56:04 10° ESE daylight
27 Jun - 22:31:43 10° SW 22:36:14 66° SE 22:40:47 10° ENE visible
